当前在线人数15678
首页 - 分类广告
发布广告出售 求购 代购 交换 出租 求租 招聘 求职 coupon 
相关版面二手市场  海外代购  房屋出租/求租  招聘/求职  电子商务  吉福卡  省钱一族 
分类显示:全部 出售 求购 代购 交换 出租 求租 招聘 求职 coupon  [首页][上页][下页][末页][ 分页:1 2 3 4 5 6 7 8 9 10 11 12 13 14 15 16 ...2594 ] 
日期: 2017年05月15日 星期一  
1 [出售] 8x ipad mini 2 32gb silver @$256  (2017-05-15 17:15:57)
2 [出售]3*HP Officejet Pro 251DW $113  (2017-05-15 17:09:36)
3 [出售]老ID出售:$100 Safeway E-Gift Card 0.90  (2017-05-15 17:07:02)
4 [出售]3*Dyson DC59 Animal $260  (2017-05-15 16:44:20)
5 [出售] AA voucher $400 @ 0.82  (2017-05-15 18:12:55)
6 [出售]IHG free night @ 130  (2017-05-15 16:17:48)
7 [出售]6666 老id出售 UA 420K  (2017-05-15 15:38:32)
8 [求购]$365【label求购】nintendo switch 红蓝 to NY  (2017-05-15 15:17:46)
9 [求购]【Label 求购】switch grey 灰开关, 360, 一个起收,from any  (2017-05-15 14:46:33)
10 [求购]求购united gift card 300 @ 0.8  (2017-05-15 18:12:00)
11 [出售]dell promitional gift card $100 for $70  (2017-05-15 18:11:55)
12 [求购]1k kroger油点@$6 exp 5/31  (2017-05-15 18:11:48)
13 [求购]【Label 求购】 Nintendo switch grey 灰开关, MA附近, >5  (2017-05-15 14:18:16)
14 [出售][老ID出售]ToysRUS/BabiesRUS gift card $300@0.87  (2017-05-15 13:57:12)
15 [出售][老ID出售]CVS gift card $175@0.83  (2017-05-15 13:56:21)
16 [出售]IHG free night certificate $160  (2017-05-15 13:47:42)
17 [出售]Hilton free weekend night x1 $180  (2017-05-15 13:39:04)
18 [求购]$360【label求购】nintendo switch grey to FL  (2017-05-15 13:37:33)
19 [出售] Brother MFC 480dw @ 57 from CA  (2017-05-15 13:35:57)
20 [出售] 60xArlo Security System - 3 Wire-Free HD Cameras  (2017-05-15 13:14:55)
21 [出售]现货 Apple 5x mmgg2 @ 925  (2017-05-15 13:04:30)
22 [求购]label求4台mini 2 16GB Silver @$245 each  (2017-05-15 12:52:55)
23 [求购]【label求购】Dyson V6 Red 209521-01 from bb 东部 @ 250  (2017-05-15 12:49:24)
24 [求购]求购 iPad mini 2 16gb space gray $235  (2017-05-15 18:08:44)
25 [求购]【Label ready求购】HP 8610 to NC @ $160  (2017-05-15 12:34:56)
26 [求购]Hyatt FN (anycat) $160/night  (2017-05-15 12:23:40)
27 [求购]跟风求购灰色开关 switch 355  (2017-05-15 12:23:00)
28 [求购][先款求购] MMGF2 $750  (2017-05-15 12:13:36)
29 [求购]【Label求购】iPad mini 4 32gb $330  (2017-05-15 12:06:33)
30 [求购]求购1XApple I watch silver white band 38mm @212 to NJ  (2017-05-15 12:02:19)
31 [求购]Norelco 1250X SensoTouch 3D Electric Razor $120  (2017-05-15 11:59:06)
32 [出售] Sears egc 150 * 0.90  (2017-05-15 11:35:37)
33 [求购]$110[label]求购Brother FAX2840 TX/CO  (2017-05-15 11:33:15)
34 [求购][label 求购] HP m401n ny $385 PA/CA  (2017-05-15 11:31:06)
35 [求购]开关SWITCH 350/360  (2017-05-15 11:22:56)
36 [出售]IHG free night x 1 @145  (2017-05-15 11:21:04)
37 [求购]【Label 求购】Brother HL2230 Printer @ $110 to FL  (2017-05-15 11:04:25)
38 [求购]【label ready 求】Brother FAX2840 to WI @ 110  (2017-05-15 11:03:57)
39 [求购]【Label 求购】2X HP M402N TO FL $125  (2017-05-15 11:03:40)
40 [出售]售United (UA) 区域升舱卷  (2017-05-15 10:56:12)
41 [求购]$360【Label Ready求购】Dell Inspiron i3455-3240WHT AiO to C  (2017-05-15 10:30:55)
42 [求购][label 求购]一个 switch 灰$355 CA  (2017-05-15 12:05:00)
43 [求购]$355【label求购】nintendo switch grey to PA  (2017-05-15 09:40:20)
44 [出售]【搬家出售】kindle keyboard 3g 成本价100出 or best offer  (2017-05-15 09:30:51)
45 [出售] ToysRUs egc 700 @ 0.88  (2017-05-15 08:52:17)
46 [求购] Dell i3558-5501BLK @385  (2017-05-15 02:33:56)
47 [求购][FBA求购]TI-84 Plus CE @$100起  (2017-05-15 02:30:21)
48 [出售][不囤货出售】brother 2240 $205  (2017-05-15 02:01:46)
49 [求购]【label求购】2X Nintendo Switch gray@350 to NE  (2017-05-15 01:30:58)
50 [求购]【label ready 求】XP 420 @ 70 to 西部  (2017-05-15 01:03:38)
51 [出售]【八五折出售】两张United 代金券$600 each,有效期8月28  (2017-05-15 00:41:02)
52 [求购]【label ready 求】Brother FAX2840 to WI @ 110  (2017-05-15 00:43:52)
53 [出售]55* ipad mini 2 32gb @$260 each  (2017-05-15 00:04:53)
54 [出售] Citi ThankYou Points (TYP) 10k to 1.3  (2017-05-14 23:58:19)
55 [求购]【label ready 求】Brother J6920DW at $265 obo  (2017-05-14 23:53:07)
56 [求购]【label ready 求】2* Lenovo-IdeaPad-100s @ 135 obo  (2017-05-14 23:47:25)
57 [出售] 1个HP 15-ay195nr @ 375 from GA  (2017-05-14 23:44:45)
58 [出售]Canon Pixma Pro 100 Printer @ $100 x1  (2017-05-14 23:42:55)
59 [出售]staples unrewarded in store receipt 5%  (2017-05-14 23:20:27)
60 [出售]staples in store ink receipt $30+  (2017-05-14 23:19:26)
61 [求购][FBA 求购] ASUS X553SA-BHCLN10 @205, >=3  (2017-05-14 23:03:36)
62 [出售] safeway 油点 6刀/1k点  (2017-05-14 23:02:21)
63 [求购]Kroger Points 14$@2K  (2017-05-14 23:00:26)
64 [求购]1k kroger油点@$6 6.30过期  (2017-05-14 22:17:13)
65 [出售]老ID出售AA 180K X1, 70K X2 @ 1.45  (2017-05-14 22:15:11)
66 [出售](出售) 90 kindle 55 each BOB  (2017-05-14 21:39:36)
67 [出售]HP BA009DX laptop from IL$215 each  (2017-05-14 21:15:49)
68 [求购][FBA 求购] ASUS X553SA-BHCLN10 @205, >=3  (2017-05-14 21:13:22)
日期: 2017年05月14日 星期日  
1 [招聘]Cambridge上海菜餐馆诚聘 洗碗工  (2017-05-14 23:07:21)
2 [出租]波士顿 Lease转租 East Boston蓝线Marverick  (2017-05-14 23:28:43)
3 [出租]Beau Jardin公寓暑期出租-2卧1.5卫  (2017-05-14 22:34:17)
4 [出售] fitbit flex *27/ charge HR *10 @ 45/80 OBO  (2017-05-14 19:42:28)
5 [求购]~~~~~~求购 AA 大面额 GC/eVoucher ~~~~~~~~~  (2017-05-14 19:07:11)
6 [求购]1*switch grey @ $345 from anywhere.  (2017-05-14 17:44:14)
7 [求购]【Label 求购】iPad air 2 32gb $352 金  (2017-05-14 17:43:56)
8 [求购]cricket refill card @0.85  (2017-05-14 17:17:44)
9 [求购]1X HP 27es close to CT @$160  (2017-05-14 16:47:05)
10 [求购]$110[label]求购1X Brother FAX2840 TX/CO  (2017-05-14 21:12:04)
11 [出售]toyRus egc@0.89  (2017-05-14 15:53:06)
12 [出售]出售iRobot Roomba 620@220  (2017-05-14 15:45:28)
13 [出售]【6666ID出售】 IHG and Marriott Certificate  (2017-05-14 15:34:29)
14 [求购]【label ready求购】Dell i5559-4682slv @$410  (2017-05-14 15:09:47)
15 [求购]【label ready求购】ASUS K556UA-WH71 @$545  (2017-05-14 21:11:36)
16 [求购][label求购]1*Apple Watch S2 42 R Gold Midnight Blu@$355  (2017-05-14 14:56:46)
17 [求购]【label求购】nintendo gray switch@353  (2017-05-14 14:29:11)
18 [出售]老ID出saks 5*400,0.88  (2017-05-14 14:01:09)
19 [出售]【label ready 出】10xHP f222wm t @$240/each  (2017-05-14 13:07:35)
20 [出售]美国national park ANNUAL PASS@$30.  (2017-05-14 12:09:29)
21 [出售]5x Brother HL-L2320D Printer@58  (2017-05-14 11:04:23)
22 [出售] 2x Dell E525W Printer @ $150  (2017-05-14 11:03:01)
23 [求购]$1240 【labelready求] Apple Macbook MF840  (2017-05-14 10:37:14)
24 [求购]$1230 【labelready求购 Macbook MF840LL/A  (2017-05-14 10:13:34)
25 [求购]$335【label ready 求购】 hp 15-ay191ms  (2017-05-14 10:12:59)
26 [求购]$410【label ready 求购】 Dell Inspiron 15 i5559-4682SLV lap  (2017-05-14 10:12:04)
27 [求购]$510【Label Ready求购】HP 15-ay198nr  (2017-05-14 10:11:37)
28 [求购]$280【Label Ready求购】DELL i3558-0954BLK  (2017-05-14 10:11:13)
29 [求购]$215【Label Ready求购】HP 15-BA009dx Laptop  (2017-05-14 10:10:41)
30 [求购][Lable Ready 求购]Apple Watch 1 38mm Space Gray@214  (2017-05-14 09:59:23)
31 [求购]$215【Label Ready求购】HP 15-BA009dx Laptop  (2017-05-14 09:45:59)
32 [出售]一张 $200 面额 dell gc @0.80  (2017-05-14 09:21:16)
分类显示:全部 出售 求购 代购 交换 出租 求租 招聘 求职 coupon  [首页][上页][下页][末页][ 分页:1 2 3 4 5 6 7 8 9 10 11 12 13 14 15 16 ...2594 ] 
发布广告出售 求购 代购 交换 出租 求租 招聘 求职 coupon 
相关版面二手市场  海外代购  房屋出租/求租  招聘/求职  电子商务  吉福卡  省钱一族 
未名交友
将您的链接放在这儿
 
 

Site Map - Contact Us - Terms and Conditions - Privacy Policy

版权所有,未名空间(mitbbs.com),since 1996